Starlink 31965

operational
NORAD ID: 59888 Int'l Des: 2024-100 Owner: SPXS Country: US Constellation: starlink
LEOCIRCULAR

About Starlink 31965

Description loading...

Live Position

Loading 3D Globe...

Upcoming Passes

Altitude History

Altitude vs Time

uPlot chart will show altitude changes over time

Two-Line Element Set

1 59888U 24100D 26094.96784282 .00024803 00000-0 90693-3 0 9999
2 59888 42.9999 337.1780 0001431 274.2220 85.8468 15.27611471105076
Epoch: Apr 4, 2026 • Age: 11 hours

Current Status

Altitude 492.8 km
Velocity 7.62 km/s
Sub-Earth Point -36.98°S, 61.65°W
Launch Date May 28, 2024
Age 1.8 years
Type internet

Technical Details

Classification Payload
Mass 730.00 kg
Dry Mass 700.00 kg
Total Mass 730.00 kg
Length 0.30 m
Diameter 4.10 m
Span 29.00 m
Shape Box + pan
Manufacturer SPXS
Bus Type Starlink V2M
Phase Status In Orbit
Owner/State SPXS/US

Large Constellations

Loading constellations...